| time (UTC) | temp C | wind direction | speed KPH | gust KPH | rain 1hr cm | rain 24hr cm | rain mn cm | humidity % | barometer mb |
| 20260502130632 | 14 | 225 | 41.8 | 0.0 | 0.00 | 0.00 | 0.00 | 1018.5 | |
| 20260502123551 | 17 | 270 | 9.7 | 0.0 | 0.00 | 0.00 | 0.00 | 1018.8 | |
| 20260502122537 | 20 | 270 | 19.3 | 0.0 | 0.00 | 0.00 | 0.00 | 1019.0 | |
| 20260502121524 | 22 | 180 | 9.7 | 0.0 | 0.00 | 0.00 | 0.00 | 1019.1 | |
| 20260502120510 | 23 | 270 | 6.4 | 0.0 | 0.00 | 0.00 | 0.00 | 1019.1 | |
| 20260502115456 | 23 | 225 | 4.8 | 0.0 | 0.00 | 0.00 | 0.00 | 1019.1 | |
| 20260502114443 | 22 | 180 | 12.9 | 0.0 | 0.00 | 0.00 | 0.00 | 1019.1 | |
| 20260502113429 | 23 | 225 | 14.5 | 0.0 | 0.00 | 0.00 | 0.00 | 1019.0 | |
| 20260502112416 | 21 | 225 | 19.3 | 0.0 | 0.00 | 0.00 | 0.00 | 1018.8 | |
| 20260502111402 | 20 | 225 | 22.5 | 0.0 | 0.00 | 0.00 | 0.00 | 1018.9 | |
| 20260502110348 | 20 | 225 | 17.7 | 0.0 | 0.00 | 0.00 | 0.00 | 1019.0 | |
| 20260502105335 | 20 | 225 | 17.7 | 0.0 | 0.00 | 0.00 | 0.00 | 1019.1 | |
| 20260502104321 | 20 | 225 | 19.3 | 0.0 | 0.00 | 0.00 | 0.00 | 1019.1 | |
| 20260502103307 | 19 | 225 | 33.8 | 0.0 | 0.00 | 0.00 | 0.00 | 1019.0 | |
| 20260502102254 | 19 | 180 | 32.2 | 0.0 | 0.00 | 0.00 | 0.00 | 1019.0 | |
| 20260502101240 | 18 | 225 | 43.5 | 0.0 | 0.00 | 0.00 | 0.00 | 1018.6 | |
| 20260502100227 | 18 | 180 | 33.8 | 0.0 | 0.00 | 0.00 | 0.00 | 1018.8 | |
| 20260502091118 | 17 | 225 | 35.4 | 0.0 | 0.00 | 0.00 | 0.00 | 1019.3 | |
| 20260502090105 | 17 | 225 | 43.5 | 0.0 | 0.00 | 0.00 | 0.00 | 1019.2 | |
| 20260502070835 | 17 | 225 | 38.6 | 0.0 | 0.00 | 0.00 | 0.00 | 1018.9 | |
| 20260502065821 | 17 | 225 | 37.0 | 0.0 | 0.00 | 0.00 | 0.00 | 1019.1 | |
| 20260502064808 | 18 | 225 | 37.0 | 0.0 | 0.00 | 0.00 | 0.00 | 1018.9 | |
| 20260502063754 | 19 | 225 | 32.2 | 0.0 | 0.00 | 0.00 | 0.00 | 1019.1 | |
| 20260502062740 | 19 | 180 | 32.2 | 0.0 | 0.00 | 0.00 | 0.00 | 1019.2 | |
| 20260502061727 | 17 | 225 | 33.8 | 0.0 | 0.00 | 0.00 | 0.00 | 1019.1 | |
| 20260502060713 | 17 | 225 | 48.3 | 0.0 | 0.00 | 0.00 | 0.00 | 1018.7 | |
| 20260502055700 | 17 | 225 | 53.1 | 0.0 | 0.00 | 0.00 | 0.00 | 1018.9 | |
| 20260502054646 | 16 | 180 | 32.2 | 0.0 | 0.00 | 0.00 | 0.00 | 1019.1 | |
| 20260502053632 | 16 | 225 | 53.1 | 0.0 | 0.00 | 0.00 | 0.00 | 1018.9 | |
| 20260502052619 | 15 | 225 | 49.9 | 0.0 | 0.00 | 0.00 | 0.00 | 1018.8 | |
| 20260502051605 | 15 | 180 | 43.5 | 0.0 | 0.00 | 0.00 | 0.00 | 1019.1 | |
| 20260502050551 | 15 | 225 | 43.5 | 0.0 | 0.00 | 0.00 | 0.00 | 1019.2 | |
| 20260502045538 | 15 | 225 | 40.2 | 0.0 | 0.00 | 0.00 | 0.00 | 1019.1 | |
| 20260502044459 | 15 | 225 | 32.2 | 0.0 | 0.00 | 0.00 | 0.00 | 1019.6 | |
| 20260502043446 | 15 | 225 | 33.8 | 0.0 | 0.00 | 0.00 | 0.00 | 1019.0 | |
| 20260502042432 | 15 | 225 | 38.6 | 0.0 | 0.00 | 0.00 | 0.00 | 1019.1 | |
| 20260502041418 | 15 | 225 | 35.4 | 0.0 | 0.00 | 0.00 | 0.00 | 1018.9 | |
| 20260502040405 | 14 | 180 | 38.6 | 0.0 | 0.00 | 0.00 | 0.00 | 1018.9 | |
| 20260502032707 | 15 | 180 | 32.2 | 0.0 | 0.00 | 0.00 | 0.00 | 1019.4 | |
| 20260502031654 | 15 | 180 | 35.4 | 0.0 | 0.00 | 0.00 | 0.00 | 1019.6 | |
| 20260502030640 | 15 | 180 | 46.7 | 0.0 | 0.00 | 0.00 | 0.00 | 1019.4 | |
| 20260502025626 | 15 | 225 | 51.5 | 0.0 | 0.00 | 0.00 | 0.00 | 1019.3 | |
| 20260502024613 | 15 | 180 | 35.4 | 0.0 | 0.00 | 0.00 | 0.00 | 1019.4 | |
| 20260502023559 | 15 | 225 | 40.2 | 0.0 | 0.00 | 0.00 | 0.00 | 1019.6 | |
| 20260502022545 | 15 | 180 | 37.0 | 0.0 | 0.00 | 0.00 | 0.00 | 1019.7 | |
| 20260502021532 | 15 | 180 | 43.5 | 0.0 | 0.00 | 0.00 | 0.00 | 1019.5 | |
| 20260502020518 | 15 | 225 | 33.8 | 0.0 | 0.00 | 0.00 | 0.00 | 1019.6 | |
| 20260502015505 | 15 | 180 | 33.8 | 0.0 | 0.00 | 0.00 | 0.00 | 1019.6 | |
| 20260502014451 | 15 | 225 | 27.4 | 0.0 | 0.00 | 0.00 | 0.00 | 1019.9 | |
| 20260502013437 | 15 | 225 | 32.2 | 0.0 | 0.00 | 0.00 | 0.00 | 1019.8 | |
| 20260502012424 | 15 | 225 | 20.9 | 0.0 | 0.00 | 0.00 | 0.00 | 1019.9 | |
| 20260502011410 | 15 | 225 | 29.0 | 0.0 | 0.00 | 0.00 | 0.00 | 1019.9 | |
| 20260502010356 | 15 | 180 | 32.2 | 0.0 | 0.00 | 0.00 | 0.00 | 1020.0 | |
| 20260502005343 | 15 | 225 | 37.0 | 0.0 | 0.00 | 0.00 | 0.00 | 1019.9 | |
| 20260502004329 | 15 | 225 | 32.2 | 0.0 | 0.00 | 0.00 | 0.00 | 1020.0 | |
| 20260502003316 | 15 | 225 | 35.4 | 0.0 | 0.00 | 0.00 | 0.00 | 1020.2 | |
| 20260502002305 | 15 | 225 | 32.2 | 0.0 | 0.00 | 0.00 | 0.00 | 1020.3 | |
| 20260502001248 | 15 | 225 | 29.0 | 0.0 | 0.00 | 0.00 | 0.00 | 1020.5 | |
| 20260502000235 | 15 | 225 | 22.5 | 0.0 | 0.00 | 0.00 | 0.00 | 1020.7 | |
| 20260501235221 | 15 | 225 | 24.1 | 0.0 | 0.00 | 0.00 | 0.00 | 1020.7 | |
| 20260501234207 | 15 | 225 | 22.5 | 0.0 | 0.00 | 0.00 | 0.00 | 1020.7 | |
| 20260501233154 | 15 | 225 | 32.2 | 0.0 | 0.00 | 0.00 | 0.00 | 1020.7 | |
| 20260501232140 | 15 | 225 | 32.2 | 0.0 | 0.00 | 0.00 | 0.00 | 1020.7 | |
| 20260501231127 | 15 | 225 | 30.6 | 0.0 | 0.00 | 0.00 | 0.00 | 1020.7 | |
| 20260501230113 | 15 | 225 | 30.6 | 0.0 | 0.00 | 0.00 | 0.00 | 1021.0 | |
| 20260501225059 | 15 | 225 | 35.4 | 0.0 | 0.00 | 0.00 | 0.00 | 1021.1 | |
| 20260501224046 | 15 | 225 | 27.4 | 0.0 | 0.00 | 0.00 | 0.00 | 1021.2 | |
| 20260501222920 | 15 | 225 | 22.5 | 0.0 | 0.00 | 0.00 | 0.00 | 1021.3 | |
| 20260501221906 | 15 | 225 | 22.5 | 0.0 | 0.00 | 0.00 | 0.00 | 1021.2 | |
| 20260501220853 | 16 | 180 | 27.4 | 0.0 | 0.00 | 0.00 | 0.00 | 1021.3 | |
| 20260501215839 | 15 | 180 | 33.8 | 0.0 | 0.00 | 0.00 | 0.00 | 1021.2 | |
| 20260501214825 | 16 | 180 | 30.6 | 0.0 | 0.00 | 0.00 | 0.00 | 1021.1 | |
| 20260501213812 | 16 | 225 | 30.6 | 0.0 | 0.00 | 0.00 | 0.00 | 1021.1 | |
| 20260501212758 | 16 | 180 | 32.2 | 0.0 | 0.00 | 0.00 | 0.00 | 1021.2 | |
| 20260501211745 | 16 | 225 | 33.8 | 0.0 | 0.00 | 0.00 | 0.00 | 1021.2 | |
| 20260501210731 | 16 | 180 | 25.7 | 0.0 | 0.00 | 0.00 | 0.00 | 1021.3 | |
| 20260501205717 | 16 | 225 | 17.7 | 0.0 | 0.00 | 0.00 | 0.00 | 1021.5 | |
| 20260501204704 | 16 | 225 | 19.3 | 0.0 | 0.00 | 0.00 | 0.00 | 1021.5 | |
| 20260501203650 | 16 | 225 | 17.7 | 0.0 | 0.00 | 0.00 | 0.00 | 1021.5 | |
| 20260501202636 | 16 | 225 | 22.5 | 0.0 | 0.00 | 0.00 | 0.00 | 1021.5 | |
| 20260501201623 | 16 | 225 | 12.9 | 0.0 | 0.00 | 0.00 | 0.00 | 1021.5 | |
| 20260501200609 | 16 | 225 | 14.5 | 0.0 | 0.00 | 0.00 | 0.00 | 1021.3 | |
| 20260501195556 | 16 | 180 | 14.5 | 0.0 | 0.00 | 0.00 | 0.00 | 1021.3 | |
| 20260501194542 | 16 | 225 | 14.5 | 0.0 | 0.00 | 0.00 | 0.00 | 1021.3 | |
| 20260501193528 | 16 | 225 | 12.9 | 0.0 | 0.00 | 0.00 | 0.00 | 1021.3 | |
| 20260501192515 | 16 | 225 | 17.7 | 0.0 | 0.00 | 0.00 | 0.00 | 1021.2 | |
| 20260501191501 | 16 | 225 | 22.5 | 0.0 | 0.00 | 0.00 | 0.00 | 1021.3 | |
| 20260501190447 | 17 | 225 | 19.3 | 0.0 | 0.00 | 0.00 | 0.00 | 1021.2 | |
| 20260501185434 | 17 | 225 | 14.5 | 0.0 | 0.00 | 0.00 | 0.00 | 1021.2 | |
| 20260501184420 | 17 | 135 | 6.4 | 0.0 | 0.00 | 0.00 | 0.00 | 1021.2 | |
| 20260501183407 | 17 | 0.0 | 0.0 | 0.00 | 0.00 | 0.00 | 1021.2 | ||
| 20260501182353 | 17 | 0.0 | 0.0 | 0.00 | 0.00 | 0.00 | 1021.2 | ||
| 20260501181339 | 17 | 90 | 8.0 | 0.0 | 0.00 | 0.00 | 0.00 | 1021.2 | |
| 20260501180326 | 17 | 135 | 6.4 | 0.0 | 0.00 | 0.00 | 0.00 | 1021.3 | |
| 20260501175312 | 17 | 45 | 19.3 | 0.0 | 0.00 | 0.00 | 0.00 | 1021.0 | |
| 20260501174258 | 17 | 45 | 14.5 | 0.0 | 0.00 | 0.00 | 0.00 | 1021.2 | |
| 20260501173245 | 17 | 45 | 17.7 | 0.0 | 0.00 | 0.00 | 0.00 | 1020.9 | |
| 20260501172231 | 18 | 45 | 19.3 | 0.0 | 0.00 | 0.00 | 0.00 | 1021.0 | |
| 20260501171218 | 18 | 45 | 17.7 | 0.0 | 0.00 | 0.00 | 0.00 | 1021.1 | |
| 20260501170204 | 19 | 45 | 25.7 | 0.0 | 0.00 | 0.00 | 0.00 | 1021.0 | |
| 20260501165150 | 19 | 45 | 19.3 | 0.0 | 0.00 | 0.00 | 0.00 | 1021.2 | |
| 20260501164137 | 20 | 45 | 19.3 | 0.0 | 0.00 | 0.00 | 0.00 | 1021.1 | |
| 20260501163123 | 20 | 45 | 25.7 | 0.0 | 0.00 | 0.00 | 0.00 | 1021.1 | |
| 20260501162109 | 20 | 45 | 20.9 | 0.0 | 0.00 | 0.00 | 0.00 | 1021.1 | |
| 20260501161056 | 20 | 45 | 16.1 | 0.0 | 0.00 | 0.00 | 0.00 | 1021.1 | |
| 20260501160042 | 21 | 90 | 20.9 | 0.0 | 0.00 | 0.00 | 0.00 | 1021.0 | |
| 20260501155028 | 21 | 45 | 24.1 | 0.0 | 0.00 | 0.00 | 0.00 | 1021.0 | |
| 20260501154015 | 21 | 45 | 20.9 | 0.0 | 0.00 | 0.00 | 0.00 | 1021.2 | |
| 20260501153001 | 20 | 45 | 16.1 | 0.0 | 0.00 | 0.00 | 0.00 | 1021.2 | |
| 20260501151948 | 21 | 45 | 20.9 | 0.0 | 0.00 | 0.00 | 0.00 | 1021.1 | |
| 20260501150934 | 21 | 45 | 25.7 | 0.0 | 0.00 | 0.00 | 0.00 | 1021.2 | |
| 20260501145920 | 21 | 45 | 8.0 | 0.0 | 0.00 | 0.00 | 0.00 | 1021.4 | |
| 20260501144907 | 21 | 45 | 22.5 | 0.0 | 0.00 | 0.00 | 0.00 | 1021.4 | |
| 20260501143853 | 22 | 45 | 17.7 | 0.0 | 0.00 | 0.00 | 0.00 | 1021.5 | |
| 20260501142839 | 23 | 45 | 20.9 | 0.0 | 0.00 | 0.00 | 0.00 | 1021.5 |